Weather History for Racine, WI

Change the Weather History Date:

Friday, April 19, 2013

  Actual Average Record
Temperature  
Mean Temperature 38 °F -  
Max Temperature 46 °F 54 °F 88 °F (1985)
Min Temperature 33 °F 38 °F 25 °F (1983)
Degree Days  
Heating Degree Days 26    
Moisture  
Dew Point 27 °F    
Average Humidity 63    
Maximum Humidity 81    
Minimum Humidity 51    
Precipitation  
Precipitation 0.02 in - - ()
Sea Level Pressure  
Sea Level Pressure 29.61 in    
Wind  
Wind Speed 17 mph (West)    
Max Wind Speed 24 mph    
Max Gust Speed 39 mph    
Visibility 9 miles    
Events Rain , Snow    
Averages and records for this station are not official NWS values.
T = Trace of Precipitation, MM = Missing Value Source: NWS Daily Summary

Daily Weather History Graph

Daily Weather History Graph

Search for Another Location

Airport:

Trip Planner

Search our weather history database for the weather conditions in past years. The results will help you decide how hot, cold, wet, or windy it might be!

Date:

Astronomy

Apr. 19, 2013 Rise Set
Actual Time 6:02 AM CDT 7:38 PM CDT
Civil Twilight 5:33 AM CDT 8:08 PM CDT
Nautical Twilight 4:57 AM CDT 8:44 PM CDT
Astronomical Twilight 4:18 AM CDT 9:22 PM CDT
Moon 1:14 PM CDT (4/19) 2:27 AM CDT (4/19)
Length of Visible Light 14h 34m
Length of Day
13h 35m
First Quarter, 62% of the Moon is Illuminated
Apr 19
First Quarter
Apr 25
Full
May 2
Last Quarter
May 9
New
May 17
First Quarter

Hourly Weather History & Observations

Time (CDT) Temp. Windchill Dew Point Humidity Pressure Visibility Wind Dir Wind Speed Gust Speed Precip Events Conditions
12:53 AM 42.1 °F 32.3 °F 30.9 °F 65% 29.46 in 10.0 mi WSW 24.2 mph 34.5 mph N/A   Overcast
1:53 AM 39.9 °F 31.4 °F 30.0 °F 68% 29.47 in 10.0 mi WSW 16.1 mph 27.6 mph N/A   Overcast
2:53 AM 39.9 °F 31.4 °F 28.9 °F 65% 29.44 in 10.0 mi SW 16.1 mph 25.3 mph N/A   Overcast
3:53 AM 39.9 °F 31.4 °F 28.0 °F 63% 29.44 in 10.0 mi WSW 16.1 mph 23.0 mph 0.00 in Rain Light Rain
4:15 AM 39.2 °F 31.6 °F 26.6 °F 61% 29.43 in 10.0 mi WSW 12.7 mph 26.5 mph 0.00 in   Overcast
4:53 AM 39.9 °F 30.8 °F 26.1 °F 58% 29.44 in 10.0 mi WSW 18.4 mph 28.8 mph 0.00 in   Overcast
5:53 AM 39.0 °F 30.3 °F 27.0 °F 62% 29.44 in 10.0 mi WSW 16.1 mph 29.9 mph N/A   Overcast
6:53 AM 39.0 °F 30.6 °F 28.0 °F 65% 29.44 in 10.0 mi WSW 15.0 mph 28.8 mph N/A   Overcast
7:24 AM 39.2 °F 29.8 °F 26.6 °F 61% 29.44 in 10.0 mi WSW 18.4 mph 28.8 mph N/A   Overcast
7:53 AM 39.0 °F 30.6 °F 27.0 °F 62% 29.45 in 10.0 mi WSW 15.0 mph 29.9 mph 0.00 in Rain Light Rain
8:10 AM 39.2 °F 31.2 °F 26.6 °F 61% 29.43 in 10.0 mi WSW 13.8 mph 23.0 mph 0.00 in   Overcast
8:53 AM 39.9 °F 31.8 °F 28.0 °F 63% 29.44 in 10.0 mi WSW 15.0 mph 26.5 mph 0.00 in   Overcast
9:53 AM 39.9 °F 31.1 °F 28.0 °F 63% 29.47 in 10.0 mi WSW 17.3 mph 31.1 mph 0.00 in   Overcast
10:53 AM 42.1 °F 34.2 °F 27.0 °F 55% 29.48 in 10.0 mi WSW 16.1 mph 33.4 mph N/A   Mostly Cloudy
11:53 AM 39.9 °F 30.5 °F 30.0 °F 68% 29.49 in 5.0 mi West 19.6 mph 39.1 mph 0.01 in Rain Light Rain
12:53 PM 44.1 °F 36.2 °F 27.0 °F 51% 29.51 in 10.0 mi WSW 18.4 mph 32.2 mph 0.00 in   Overcast
1:53 PM 44.1 °F 36.5 °F 28.9 °F 55% 29.54 in 10.0 mi West 17.3 mph 33.4 mph 0.00 in   Overcast
2:53 PM 42.1 °F 33.9 °F 27.0 °F 55% 29.58 in 10.0 mi WSW 17.3 mph 35.7 mph 0.00 in Rain Light Rain
3:53 PM 42.1 °F 33.9 °F 28.0 °F 58% 29.60 in 10.0 mi West 17.3 mph 27.6 mph 0.00 in Rain Light Rain
4:53 PM 42.1 °F 33.3 °F 25.0 °F 51% 29.65 in 10.0 mi West 19.6 mph 28.8 mph 0.00 in   Overcast
5:53 PM 41.0 °F 32.5 °F 24.1 °F 51% 29.69 in 10.0 mi WNW 17.3 mph 29.9 mph N/A   Overcast
6:53 PM 37.9 °F 28.5 °F 25.0 °F 60% 29.73 in 4.0 mi West 17.3 mph 34.5 mph 0.00 in Snow Light Snow
7:53 PM 37.9 °F 32.1 °F 23.0 °F 55% 29.78 in 10.0 mi West 8.1 mph 16.1 mph 0.00 in   Overcast
8:53 PM 37.0 °F 29.3 °F 26.1 °F 65% 29.82 in 9.0 mi WNW 11.5 mph - 0.00 in   Overcast
9:53 PM 37.9 °F 32.1 °F 24.1 °F 57% 29.85 in 10.0 mi WNW 8.1 mph - N/A   Overcast
10:10 PM 35.6 °F 26.6 °F 26.6 °F 70% 29.85 in 1.5 mi NNW 13.8 mph 23.0 mph 0.00 in Snow Light Snow
10:14 PM 33.8 °F 24.8 °F 28.4 °F 81% 29.85 in 0.8 mi NW 12.7 mph 23.0 mph 0.00 in Snow Light Snow
10:22 PM 33.8 °F 27.0 °F 28.4 °F 81% 29.85 in 1.0 mi West 8.1 mph 18.4 mph 0.01 in Snow Light Snow
10:28 PM 33.8 °F 27.0 °F 28.4 °F 81% 29.85 in 3.0 mi WNW 8.1 mph - 0.01 in Snow Light Snow
10:40 PM 35.6 °F 29.2 °F 28.4 °F 75% 29.85 in 10.0 mi West 8.1 mph - 0.01 in   Overcast
10:53 PM 35.1 °F 27.4 °F 27.0 °F 72% 29.88 in 10.0 mi West 10.4 mph 19.6 mph 0.01 in   Overcast
11:53 PM 35.1 °F 27.4 °F 23.0 °F 61% 29.91 in 10.0 mi WNW 10.4 mph - N/A   Mostly Cloudy